Darstellungsparameter: Aktuell verwendete Einstellungen:
Skalierung der Graphiken ... ?
xyx+y,   Skalierungsfaktor:      Skalierung: Modus: x, Faktor: 1
Darstellungszeitraum ... ?
Vom - - bis: - -   Zeitraum: 16.02.2014 - 15.08.2014
Min/Max/Avg-Anzeige ... ?
Zeige MMA aktuell
Zeige MMA Monat
Zeige MMA alles
Zeige --A aktuell
Zeige --A Monat
Zeige --A alles
Keine MMA-Anzeige
MMA:
Keine MMA-Graphiken
MMA-Basis: 16.02.2014 - 15.08.2014
Quicknavigation für Darstellung... ?
Tage:      1T, 2T, 3T, 5T -1T -2T -3T -5T +1T +2T +3T +5T
Wochen: 1W, 2W, 3W -1W -2W -3W +1W +2W +3W
Monate: 1M, 3M, 6M -1M -3M -6M +1M +3M +6M
Jahre:    1J, 3J, 5J, 10J -1J -3J -5J -10J +1J +3J +5J +10J
Nutze für die Darstellung ... ?
Originaldaten oder ...
Mittelwerte Minima Maxima auf...
Stundenbasis Tagesbasis Wochenbasis
Monatsbasis Jahresbasis      Datenbasis: Mittelwerte auf Tagesbasis
Darstellen als:
Statistik (Auto) Statistik J:M      Darstellung:
Zur Graphik,    zurück zur Übersicht aller Sensoren.
 
Tabellarische Datenbersicht: ?
 
Sensor: Nr:Datum:Temp:Feuchte:Taupunkt:
Aussen-T/F 1 16-02-2014 00:00:00 7.36493 C 80.5694 % 4.25 C
2 17-02-2014 00:00:00 3.59861 C 91.7118 % 2.38 C
3 18-02-2014 00:00:00 3.38715 C 94.0590 % 2.52 C
4 19-02-2014 00:00:00 7.825 C 84.9722 % 5.46 C
5 20-02-2014 00:00:00 8.68958 C 82.6215 % 5.9 C
6 21-02-2014 00:00:00 7.64062 C 84.5451 % 5.21 C
7 22-02-2014 00:00:00 4.99861 C 87.1563 % 3.05 C
8 23-02-2014 00:00:00 5.94204 C 83.6694 % 3.39 C
9 24-02-2014 00:00:00 5.86389 C 80.9444 % 2.85 C
10 25-02-2014 00:00:00 6.68681 C 82.1910 % 3.87 C
11 26-02-2014 00:00:00 8.58182 C 81.5382 % 5.61 C
12 27-02-2014 00:00:00 5.86275 C 84.1961 % 3.41 C
13 28-02-2014 00:00:00 6.2146 C 87.8248 % 4.35 C
14 01-03-2014 00:00:00 5.44375 C 88.4410 % 3.69 C
15 02-03-2014 00:00:00 3.55069 C 87.5208 % 1.68 C
16 03-03-2014 00:00:00 5.27743 C 86.6458 % 3.24 C
17 04-03-2014 00:00:00 4.21701 C 86.7118 % 2.2 C
18 05-03-2014 00:00:00 4.68235 C 86.5059 % 2.63 C
19 06-03-2014 00:00:00 3.87951 C 89.4306 % 2.3 C
20 07-03-2014 00:00:00 6.23037 C 80.7383 % 3.17 C
21 08-03-2014 00:00:00 7.3847 C 80.0427 % 4.18 C
22 09-03-2014 00:00:00 7.27263 C 76.4772 % 3.42 C
23 10-03-2014 00:00:00 7.44444 C 75.5035 % 3.41 C
24 11-03-2014 00:00:00 8.4184 C 78.6424 % 4.93 C
25 12-03-2014 00:00:00 9.07812 C 74.1354 % 4.72 C
Sensor: Nr:Datum:Temp:Feuchte:Taupunkt:
Aussen-T/F 26 13-03-2014 00:00:00 8.16007 C 73.3681 % 3.69 C
27 14-03-2014 00:00:00 7.91944 C 76.8993 % 4.12 C
28 15-03-2014 00:00:00 8.97326 C 77.3021 % 5.22 C
29 16-03-2014 00:00:00 11.50486 C 77.2500 % 7.67 C
30 17-03-2014 00:00:00 10.27882 C 81.5486 % 7.27 C
31 18-03-2014 00:00:00 9.4066 C 83.2882 % 6.72 C
32 19-03-2014 00:00:00 12.2875 C 70.5521 % 7.1 C
33 20-03-2014 00:00:00 12.49333 C 67.2772 % 6.6 C
34 21-03-2014 00:00:00 13.1375 C 66.5069 % 7.05 C
35 22-03-2014 00:00:00 8.65208 C 83.0799 % 5.95 C
36 23-03-2014 00:00:00 6.03507 C 81.4861 % 3.11 C
37 24-03-2014 00:00:00 5.42632 C 80.7404 % 2.39 C
38 25-03-2014 00:00:00 4.1625 C 82.4271 % 1.44 C
39 26-03-2014 00:00:00 4.56076 C 78.8125 % 1.21 C
40 27-03-2014 00:00:00 8.14604 C 73.6475 % 3.73 C
41 28-03-2014 00:00:00 10.60972 C 66.4167 % 4.62 C
42 29-03-2014 00:00:00 10.34963 C 70.5809 % 5.24 C
43 30-03-2014 00:00:00 9.15619 C 76.1429 % 5.18 C
44 31-03-2014 00:00:00 12.96562 C 65.8924 % 6.75 C
45 01-04-2014 00:00:00 13.77519 C 67.7366 % 7.92 C
46 02-04-2014 00:00:00 13.90458 C 68.9754 % 8.31 C
47 03-04-2014 00:00:00 12.54324 C 77.5811 % 8.74 C
48 04-04-2014 00:00:00 14.95971 C 74.9173 % 10.55 C
49 05-04-2014 00:00:00 13.00531 C 86.2612 % 10.77 C
50 06-04-2014 00:00:00 11.67782 C 83.0879 % 8.91 C
Sensor: Nr:Datum:Temp:Feuchte:Taupunkt:
Aussen-T/F 51 07-04-2014 00:00:00 15.95041 C 75.4713 % 11.62 C
52 08-04-2014 00:00:00 12.18521 C 67.1585 % 6.28 C
53 09-04-2014 00:00:00 9.27426 C 75.9154 % 5.25 C
54 10-04-2014 00:00:00 10.31543 C 77.0864 % 6.48 C
55 11-04-2014 00:00:00 14.56849 C 72.5000 % 9.69 C
56 12-04-2014 00:00:00 12.65368 C 70.8982 % 7.52 C
57 13-04-2014 00:00:00 11.60669 C 71.0599 % 6.55 C
58 14-04-2014 00:00:00 9.7593 C 71.2491 % 4.81 C
59 15-04-2014 00:00:00 7.10171 C 73.7991 % 2.75 C
60 16-04-2014 00:00:00 12.97192 C 49.4521 % 2.65 C
61 17-04-2014 00:00:00 9.85313 C 63.3021 % 3.22 C
62 18-04-2014 00:00:00 10.72049 C 64.8750 % 4.39 C
63 19-04-2014 00:00:00 10.82049 C 71.8993 % 5.96 C
64 20-04-2014 00:00:00 14.91825 C 70.5509 % 9.62 C
65 21-04-2014 00:00:00 12.49479 C 77.9896 % 8.77 C
66 22-04-2014 00:00:00 12.82847 C 85.6076 % 10.48 C
67 23-04-2014 00:00:00 13.43958 C 81.1771 % 10.28 C
68 24-04-2014 00:00:00 15.42535 C 79.0035 % 11.8 C
69 25-04-2014 00:00:00 16.71562 C 74.1319 % 12.09 C
70 26-04-2014 00:00:00 15.2 C 74.7604 % 10.75 C
71 27-04-2014 00:00:00 13.07674 C 81.7986 % 10.04 C
72 28-04-2014 00:00:00 12.80243 C 79.8715 % 9.42 C
73 29-04-2014 00:00:00 13.43403 C 90.3056 % 11.88 C
74 30-04-2014 00:00:00 14.53507 C 84.7500 % 12 C
75 01-05-2014 00:00:00 14.73611 C 81.3611 % 11.58 C
Sensor: Nr:Datum:Temp:Feuchte:Taupunkt:
Aussen-T/F 76 02-05-2014 00:00:00 11.71319 C 86.6736 % 9.57 C
77 03-05-2014 00:00:00 10.92708 C 61.0069 % 3.71 C
78 04-05-2014 00:00:00 9.61042 C 68.0590 % 4.02 C
79 05-05-2014 00:00:00 12.60069 C 67.5521 % 6.76 C
80 06-05-2014 00:00:00 13.72083 C 74.2778 % 9.23 C
81 07-05-2014 00:00:00 13.05764 C 84.9931 % 10.6 C
82 08-05-2014 00:00:00 12.32847 C 84.6146 % 9.81 C
83 09-05-2014 00:00:00 15.33403 C 71.0833 % 10.13 C
84 10-05-2014 00:00:00 12.40903 C 81.6528 % 9.36 C
85 11-05-2014 00:00:00 11.45764 C 80.1667 % 8.16 C
86 12-05-2014 00:00:00 11.1941 C 74.9167 % 6.92 C
87 13-05-2014 00:00:00 10.30729 C 85.3368 % 7.96 C
88 14-05-2014 00:00:00 10.63542 C 76.9514 % 6.77 C
89 15-05-2014 00:00:00 10.00382 C 80.4757 % 6.8 C
90 16-05-2014 00:00:00 13.25347 C 73.1250 % 8.55 C
91 17-05-2014 00:00:00 14.22292 C 71.7500 % 9.2 C
92 18-05-2014 00:00:00 15.4809 C 74.3021 % 10.93 C
93 19-05-2014 00:00:00 17.57188 C 70.6944 % 12.19 C
94 20-05-2014 00:00:00 19.46562 C 67.3681 % 13.26 C
95 21-05-2014 00:00:00 20.29792 C 68.1181 % 14.23 C
96 22-05-2014 00:00:00 20.21806 C 65.7465 % 13.61 C
97 23-05-2014 00:00:00 15.52639 C 89.6667 % 13.84 C
98 24-05-2014 00:00:00 14.72993 C 81.1514 % 11.53 C
99 25-05-2014 00:00:00 15.25071 C 74.9149 % 10.83 C
100 26-05-2014 00:00:00 16.8625 C 80.3056 % 13.45 C
Sensor: Nr:Datum:Temp:Feuchte:Taupunkt:
Aussen-T/F 101 27-05-2014 00:00:00 15.19431 C 94.7346 % 14.36 C
102 28-05-2014 00:00:00 14.58118 C 88.4000 % 12.69 C
103 29-05-2014 00:00:00 13.44653 C 87.1042 % 11.35 C
104 30-05-2014 00:00:00 13.2316 C 70.4167 % 7.97 C
105 31-05-2014 00:00:00 13.40382 C 74.2639 % 8.92 C
106 01-06-2014 00:00:00 15.49273 C 69.6545 % 9.98 C
107 02-06-2014 00:00:00 15.88943 C 67.9715 % 9.99 C
108 03-06-2014 00:00:00 15.78662 C 74.8627 % 11.34 C
109 04-06-2014 00:00:00 14.95388 C 86.4155 % 12.71 C
110 05-06-2014 00:00:00 14.55765 C 67.7687 % 8.68 C
111 06-06-2014 00:00:00 17.20312 C 67.7778 % 11.2 C
112 07-06-2014 00:00:00 20.77257 C 72.3750 % 15.62 C
113 08-06-2014 00:00:00 24.09514 C 70.7431 % 18.45 C
114 09-06-2014 00:00:00 25.74583 C 69.9583 % 19.85 C
115 10-06-2014 00:00:00 23.66632 C 70.6389 % 18.01 C
116 11-06-2014 00:00:00 20.10803 C 81.3175 % 16.81 C
117 12-06-2014 00:00:00 19.97431 C 66.4583 % 13.54 C
118 13-06-2014 00:00:00 18.37014 C 68.1597 % 12.4 C
119 14-06-2014 00:00:00 17.27465 C 65.5104 % 10.76 C
120 15-06-2014 00:00:00 16.86944 C 67.1875 % 10.75 C
121 16-06-2014 00:00:00 15.61944 C 74.7396 % 11.15 C
122 17-06-2014 00:00:00 17.41354 C 66.8819 % 11.2 C
123 18-06-2014 00:00:00 17.76319 C 71.4931 % 12.54 C
124 19-06-2014 00:00:00 15.70791 C 75.5252 % 11.4 C
125 20-06-2014 00:00:00 15.64143 C 71.1667 % 10.44 C
Sensor: Nr:Datum:Temp:Feuchte:Taupunkt:
Aussen-T/F 126 21-06-2014 00:00:00 16.62118 C 65.5903 % 10.15 C
127 22-06-2014 00:00:00 16.62782 C 66.3415 % 10.33 C
128 23-06-2014 00:00:00 17.14792 C 65.1910 % 10.56 C
129 24-06-2014 00:00:00 16.64978 C 71.6277 % 11.5 C
130 25-06-2014 00:00:00 17.29096 C 56.5426 % 8.58 C
131 26-06-2014 00:00:00 16.18958 C 64.0764 % 9.4 C
132 27-06-2014 00:00:00 17.54167 C 67.2604 % 11.41 C
133 28-06-2014 00:00:00 16.28043 C 87.3950 % 14.18 C
134 29-06-2014 00:00:00 14.67192 C 93.3251 % 13.61 C
135 30-06-2014 00:00:00 16.05247 C 75.2167 % 11.67 C
136 01-07-2014 00:00:00 15.65035 C 70.2917 % 10.26 C
137 02-07-2014 00:00:00 16.86146 C 65.5313 % 10.37 C
138 03-07-2014 00:00:00 19.78889 C 59.6493 % 11.72 C
139 04-07-2014 00:00:00 20.36076 C 67.5382 % 14.16 C
140 05-07-2014 00:00:00 20.4 C 77.3439 % 16.3 C
141 06-07-2014 00:00:00 23.48509 C 69.7818 % 17.65 C
142 07-07-2014 00:00:00 19.86367 C 64.8202 % 13.05 C
143 08-07-2014 00:00:00 15.57633 C 89.8898 % 13.92 C
144 09-07-2014 00:00:00 12.97083 C 95.1667 % 12.22 C
145 10-07-2014 00:00:00 17.68292 C 90.2000 % 16.06 C
146 11-07-2014 00:00:00 18.42369 C 88.6466 % 16.51 C
147 12-07-2014 00:00:00 18.68363 C 88.1018 % 16.67 C
148 13-07-2014 00:00:00 19.06941 C 85.5922 % 16.6 C
149 14-07-2014 00:00:00 19.60206 C 79.5021 % 15.96 C
150 15-07-2014 00:00:00 21.3216 C 70.6901 % 15.78 C
Sensor: Nr:Datum:Temp:Feuchte:Taupunkt:
Aussen-T/F 151 16-07-2014 00:00:00 21.88732 C 74.8829 % 17.23 C
152 17-07-2014 00:00:00 23.77903 C 70.2742 % 18.04 C
153 18-07-2014 00:00:00 24.87935 C 65.5097 % 17.97 C
154 19-07-2014 00:00:00 27.76989 C 58.4086 % 18.86 C
155 20-07-2014 00:00:00 22.68715 C 80.6840 % 19.19 C
156 21-07-2014 00:00:00 20.29965 C 91.0660 % 18.79 C
157 22-07-2014 00:00:00 23.6856 C 82.0494 % 20.44 C
158 23-07-2014 00:00:00 23.11788 C 73.8869 % 18.2 C
159 24-07-2014 00:00:00 20.63922 C 73.5020 % 15.74 C
160 25-07-2014 00:00:00 21.8193 C 72.9825 % 16.76 C
161 26-07-2014 00:00:00 21.92 C 74.3097 % 17.14 C
162 27-07-2014 00:00:00 19.66694 C 83.9339 % 16.88 C
163 28-07-2014 00:00:00 22.3284 C 78.8580 % 18.48 C
164 29-07-2014 00:00:00 19.88194 C 95.8125 % 19.19 C
165 30-07-2014 00:00:00 19.93194 C 85.4097 % 17.41 C
166 31-07-2014 00:00:00 20.20645 C 77.0896 % 16.06 C
167 01-08-2014 00:00:00 20.08438 C 81.7153 % 16.86 C
168 02-08-2014 00:00:00 20.10868 C 84.8264 % 17.48 C
169 03-08-2014 00:00:00 21.3566 C 81.2743 % 18.02 C
170 04-08-2014 00:00:00 19.00347 C 86.5799 % 16.71 C
171 05-08-2014 00:00:00 18.77049 C 82.0208 % 15.64 C
172 06-08-2014 00:00:00 17.59618 C 84.4201 % 14.94 C
173 07-08-2014 00:00:00 18.9934 C 85.7986 % 16.56 C
174 08-08-2014 00:00:00 18.87604 C 89.5625 % 17.12 C
175 09-08-2014 00:00:00 20.16771 C 80.6076 % 16.73 C
Sensor: Nr:Datum:Temp:Feuchte:Taupunkt:
Aussen-T/F 176 10-08-2014 00:00:00 19.0125 C 90.0208 % 17.34 C
177 11-08-2014 00:00:00 17.0066 C 81.0000 % 13.72 C
178 12-08-2014 00:00:00 17.62431 C 72.1944 % 12.56 C
179 13-08-2014 00:00:00 15.97674 C 89.6528 % 14.28 C
180 14-08-2014 00:00:00 16.15426 C 84.3298 % 13.51 C
181 15-08-2014 00:00:00 14.48638 C 92.1720 % 13.23 C

Maximal/Minimal-Werte vom 16.02.2014 - 15.08.2014

Sensor Min Max Avg
Temp
(Aussen-T/F)
-0.9 °C
04-03-2014  06:00:00
35.4 °C
09-06-2014  18:00:00
14.09 °C
Feuchte
(Aussen-T/F)
21 %
31-03-2014  15:25:00
100 %
23-02-2014  12:40:00
77.26 %
Taupunkt
(Aussen-T/F)
1.21 C
26-03-2014  00:00:00
20.44 C
22-07-2014  00:00:00
10.17 C

Die Daten stammen von einer Davis Vantage Pro 2 Wetter-Station und werden unter Linux mit der Software wview2wettercgi und aufbereitet. Alle Angaben erfolgen ohne Gewähr für ihre Vollständigkeit oder Richtigkeit.
Kontakt: Rainer Krienke krienke@uni-koblenz.de . Meine Webseiten an der Uni Koblenz oder privat.
Version: $Revision: 0.78 $